RJBE

Details ICAO RJBE (UKB)
Name Kobe
Region Japan
Timezone Asia/Tokyo (UTC+9.0)
Plans Departing 47
Arriving 37
Stats Elevation 22 ft / 7 m (AMSL)
Location 34.632700° 135.223883°
Runways 1
Magnetic Variation 7.675° W
Sunrise 2018-05-21 19:53:30 UTC / 2018-05-22 04:53:30 Local
Sunset 2018-05-22 10:00:50 UTC / 2018-05-22 19:00:50 Local
Advertisement - Login to hide

Runways

ID Width Length Bearing (true) Bearing (mag) Surface Threshold Offset Overrun Length
09 200 ft / 61 m 8,187 ft / 2,495 m 84.58° 92.25° Asphalt 0 ft / 0 m 0 ft / 0 m
27 200 ft / 61 m 8,187 ft / 2,495 m 264.60° 272.27° Asphalt 0 ft / 0 m 0 ft / 0 m

Approach Navaids

Runway Type Ident Frequency Range Bearing (true) Bearing (mag) Slope Elevation
09 Localiser IKO 109.15 MHz 18 nm / 33 km 84.59° 92.27° - 22 ft / 7 m (AMSL)
09 Glidescope IKO 109.15 MHz 10 nm / 19 km 84.59° 92.26° 3.00° 22 ft / 7 m (AMSL)
09 DME IKO 109.15 MHz 18 nm / 33 km - - - 39 ft / 12 m (AMSL)

Map

Weather


0- 5 10 15 20 25 30 35+ Temperature / ° C

Clouds and Precipitation
Forecast for 2018-05-22 12:00 UTC. Updated an hour ago

Ground ~20,000 ft ~40,000 ft Winds

METAR

RJBE 221200Z 22005KT CAVOK 19/16 Q1014

TAF

Not found

Frequencies

Recorded 128.07 MHz ATIS
Approach 125.30 MHz KANSAI TCA
Tower 126.20 MHz TWR
Warning: Do not use this data for real-world aviation or navigation. No guarantee of current accuracy is given.